Crystal River, FL

3:50 AM EST on February 19, 2018 (GMT -0500)
Crystal River

Weather History for KCGC - January, 2014

Change the Weather History Date:

Monday, January 20, 2014

  Actual Average (KBKV) Record (KBKV)
Temperature  
Mean Temperature 50 °F -  
Max Temperature 66 °F 67 °F 82 °F (2002)
Min Temperature 33 °F 41 °F 28 °F (2003)
Degree Days  
Heating Degree Days 16    
Moisture  
Dew Point 41 °F    
Average Humidity 79    
Maximum Humidity 100    
Minimum Humidity 45    
Precipitation  
Precipitation 0.00 in - - ()
Sea Level Pressure  
Sea Level Pressure 30.11 in    
Wind  
Wind Speed 1 mph (WNW)    
Max Wind Speed 8 mph    
Max Gust Speed -    
Visibility 8 miles    
Events Fog    
Averages and records for this station are not official NWS values.
T = Trace of Precipitation, MM = Missing Value Source: NWS Daily Summary

Daily Weather History Graph

Daily Weather History Graph

Search for Another Location

Airport or City:

Trip Planner

Search our weather history database for the weather conditions in past years. The results will help you decide how hot, cold, wet, or windy it might be!

Date:

Astronomy

Jan. 20, 2014 Rise Set
Actual Time 7:23 AM EST 5:59 PM EST
Civil Twilight 6:58 AM EST 6:24 PM EST
Nautical Twilight 6:29 AM EST 6:53 PM EST
Astronomical Twilight 6:01 AM EST 7:21 PM EST
Moon 10:07 PM EST (1/20) 9:45 AM EST (1/20)
Length of Visible Light 11h 26m
Length of Day
10h 35m
Waning Gibbous, 83% of the Moon is Illuminated
Jan 20
Waning Gibbous
Jan 24
Last Quarter
Jan 30
New
Feb 6
First Quarter
Feb 14
Full

Hourly Weather History & Observations

Time (EST) Temp. Dew Point Humidity Pressure Visibility Wind Dir Wind Speed Gust Speed Precip Events Conditions
12:15 AM 39.2 °F 37.4 °F 93% 30.14 in 0.8 mi Calm Calm - N/A   Overcast
12:35 AM 39.2 °F 37.4 °F 93% 30.14 in 1.0 mi Calm Calm - N/A   Overcast
12:55 AM 39.2 °F 37.4 °F 93% 30.14 in 0.2 mi Calm Calm - N/A Fog Fog
1:15 AM 39.2 °F 37.4 °F 93% 30.14 in 0.5 mi Calm Calm - N/A Fog Fog
1:35 AM 37.4 °F 37.4 °F 100% 30.14 in 0.2 mi Calm Calm - N/A Fog Fog
1:55 AM 37.4 °F 37.4 °F 100% 30.14 in 0.2 mi Calm Calm - N/A Fog Fog
2:15 AM 37.4 °F 37.4 °F 100% 30.14 in 7.0 mi Calm Calm - N/A   Mostly Cloudy
2:35 AM 37.4 °F 35.6 °F 93% 30.14 in 10.0 mi Calm Calm - N/A   Scattered Clouds
2:55 AM 37.4 °F 35.6 °F 93% 30.13 in 5.0 mi Calm Calm - N/A   Clear
3:15 AM 37.4 °F 35.6 °F 93% 30.13 in 10.0 mi Calm Calm - N/A   Clear
3:35 AM 35.6 °F 35.6 °F 100% 30.13 in 10.0 mi Calm Calm - N/A   Clear
3:55 AM 35.6 °F 35.6 °F 100% 30.14 in 10.0 mi Calm Calm - N/A   Clear
4:15 AM 35.6 °F 33.8 °F 93% 30.14 in 10.0 mi Calm Calm - N/A   Scattered Clouds
4:35 AM 35.6 °F 33.8 °F 93% 30.14 in 10.0 mi Calm Calm - N/A   Scattered Clouds
4:55 AM 35.6 °F 33.8 °F 93% 30.14 in 10.0 mi Calm Calm - N/A   Mostly Cloudy
5:15 AM 35.6 °F 33.8 °F 93% 30.14 in 0.2 mi Calm Calm - N/A Fog Fog
5:35 AM 35.6 °F 33.8 °F 93% 30.14 in 0.8 mi Calm Calm - N/A   Overcast
5:55 AM 35.6 °F 33.8 °F 93% 30.14 in 0.5 mi Calm Calm - N/A Fog Fog
6:15 AM 35.6 °F 33.8 °F 93% 30.14 in 0.2 mi Calm Calm - N/A Fog Fog
6:35 AM 35.6 °F 33.8 °F 93% 30.14 in 0.2 mi Calm Calm - N/A Fog Fog
6:55 AM 35.6 °F 33.8 °F 93% 30.14 in 0.2 mi Calm Calm - N/A Fog Fog
7:15 AM 33.8 °F 33.8 °F 100% 30.15 in 0.5 mi Calm Calm - N/A Fog Fog
7:35 AM 33.8 °F 33.8 °F 100% 30.16 in 0.2 mi Calm Calm - N/A Fog Fog
7:55 AM 33.8 °F 33.8 °F 100% 30.16 in 0.2 mi Calm Calm - N/A Fog Fog
8:15 AM 35.6 °F 33.8 °F 93% 30.16 in 0.5 mi Calm Calm - N/A Fog Fog
8:35 AM 37.4 °F 37.4 °F 100% 30.16 in 10.0 mi Calm Calm - N/A   Scattered Clouds
8:55 AM 42.8 °F 41.0 °F 93% 30.16 in 10.0 mi Calm Calm - N/A   Clear
9:15 AM 46.4 °F 44.6 °F 93% 30.17 in 10.0 mi Calm Calm - N/A   Clear
9:35 AM 50.0 °F 48.2 °F 94% 30.17 in 10.0 mi Calm Calm - N/A   Clear
9:55 AM 51.8 °F 50.0 °F 94% 30.17 in 10.0 mi Calm Calm - N/A   Clear
10:15 AM 53.6 °F 46.4 °F 77% 30.17 in 10.0 mi Calm Calm - N/A   Clear
10:35 AM 55.4 °F 44.6 °F 67% 30.17 in 10.0 mi Calm Calm - N/A   Clear
10:55 AM 60.8 °F 41.0 °F 48% 30.16 in 10.0 mi Calm Calm - N/A   Clear
11:15 AM 60.8 °F 39.2 °F 45% 30.16 in 10.0 mi Calm Calm - N/A   Clear
11:35 AM 62.6 °F 41.0 °F 45% 30.15 in 10.0 mi WNW 5.8 mph - N/A   Clear
11:55 AM 64.4 °F 42.8 °F 45% 30.14 in 10.0 mi WNW 6.9 mph - N/A   Clear
12:15 PM 64.4 °F 42.8 °F 45% 30.13 in 10.0 mi West 5.8 mph - N/A   Clear
12:35 PM 64.4 °F 44.6 °F 49% 30.11 in 10.0 mi WSW 5.8 mph - N/A   Clear
12:55 PM 64.4 °F 44.6 °F 49% 30.11 in 10.0 mi WSW 8.1 mph - N/A   Clear
1:15 PM 66.2 °F 44.6 °F 46% 30.09 in 10.0 mi WNW 8.1 mph - N/A   Clear
1:35 PM 64.4 °F 44.6 °F 49% 30.09 in 10.0 mi West 8.1 mph - N/A   Clear
1:55 PM 64.4 °F 44.6 °F 49% 30.08 in 10.0 mi West 5.8 mph - N/A   Clear
2:15 PM 64.4 °F 44.6 °F 49% 30.07 in 10.0 mi WNW 4.6 mph - N/A   Clear
2:35 PM 64.4 °F 44.6 °F 49% 30.07 in 10.0 mi WNW 6.9 mph - N/A   Clear
2:55 PM 64.4 °F 44.6 °F 49% 30.07 in 10.0 mi NW 8.1 mph - N/A   Clear
3:15 PM 64.4 °F 44.6 °F 49% 30.06 in 10.0 mi WNW 8.1 mph - N/A   Clear
3:35 PM 64.4 °F 44.6 °F 49% 30.07 in 10.0 mi WNW 8.1 mph - N/A   Clear
3:55 PM 62.6 °F 44.6 °F 52% 30.07 in 10.0 mi West 6.9 mph - N/A   Clear
4:15 PM 62.6 °F 44.6 °F 52% 30.06 in 10.0 mi WNW 4.6 mph - N/A   Clear
4:35 PM 60.8 °F 44.6 °F 55% 30.06 in 10.0 mi WNW 5.8 mph - N/A   Clear
4:55 PM 60.8 °F 42.8 °F 52% 30.06 in 10.0 mi West 5.8 mph - N/A   Clear
5:15 PM 59.0 °F 42.8 °F 55% 30.06 in 10.0 mi West 4.6 mph - N/A   Clear
5:35 PM 55.4 °F 42.8 °F 63% 30.06 in 10.0 mi Calm Calm - N/A   Clear
5:55 PM 53.6 °F 44.6 °F 72% 30.07 in 10.0 mi Calm Calm - N/A   Clear
6:15 PM 53.6 °F 44.6 °F 72% 30.06 in 10.0 mi Calm Calm - N/A   Clear
6:35 PM 51.8 °F 44.6 °F 76% 30.07 in 10.0 mi Calm Calm - N/A   Clear
6:55 PM 50.0 °F 44.6 °F 82% 30.07 in 10.0 mi Calm Calm - N/A   Clear
7:15 PM 50.0 °F 44.6 °F 82% 30.07 in 10.0 mi Calm Calm - N/A   Clear
7:35 PM 50.0 °F 44.6 °F 82% 30.07 in 10.0 mi Calm Calm - N/A   Clear
7:55 PM 48.2 °F 42.8 °F 82% 30.06 in 10.0 mi Calm Calm - N/A   Clear
8:15 PM 46.4 °F 42.8 °F 87% 30.06 in 10.0 mi Calm Calm - N/A   Clear
8:35 PM 46.4 °F 42.8 °F 87% 30.07 in 10.0 mi Calm Calm - N/A   Clear
8:55 PM 46.4 °F 42.8 °F 87% 30.06 in 10.0 mi Calm Calm - N/A   Clear
9:15 PM 46.4 °F 42.8 °F 87% 30.06 in 10.0 mi Calm Calm - N/A   Clear
9:35 PM 44.6 °F 42.8 °F 93% 30.07 in 10.0 mi Calm Calm - N/A   Scattered Clouds
9:55 PM 46.4 °F 42.8 °F 87% 30.07 in 10.0 mi Calm Calm - N/A   Mostly Cloudy
10:15 PM 44.6 °F 42.8 °F 93% 30.07 in 10.0 mi Calm Calm - N/A   Mostly Cloudy
10:35 PM 46.4 °F 42.8 °F 87% 30.07 in 10.0 mi Calm Calm - N/A   Scattered Clouds
10:55 PM 44.6 °F 42.8 °F 93% 30.06 in 10.0 mi Calm Calm - N/A   Scattered Clouds
11:15 PM 44.6 °F 42.8 °F 93% 30.06 in 10.0 mi Calm Calm - N/A   Clear
11:35 PM 44.6 °F 42.8 °F 93% 30.05 in 10.0 mi Calm Calm - N/A   Clear
11:55 PM 44.6 °F 42.8 °F 93% 30.05 in 10.0 mi Calm Calm - N/A   Clear